Regional Weather Roundup
Issued by NWS

Home | Current Version | Previous Version | Graphics & Text | Print | Product List | Glossary On
Versions: 1 2 3 4 5 6 7 8 9 10 11 12 13 14 15 16 17 18 19 20 21 22 23 24 25 26 27 28 29 30 31 32 33 34 35 36 37 38 39 40 41 42 43 44 45 46 47 48 49 50
000
ASUS45 KABQ 031410
RWRNM
WEATHER ROUNDUP FOR NEW MEXICO
NATIONAL WEATHER SERVICE ALBUQUERQUE NM
700 AM MST TUE MAR 03 2015

NOTE: "FAIR" MEANS FEW OR NO CLOUDS BELOW 12,000 FEET AGL WITH NO
       SIGNIFICANT WEATHER OR OBSTRUCTIONS TO VISION.

      THIS PRODUCT IS RELEASED AS TWO VERSIONS.  ONE VERSION NEAR
      THE TOP OF THE HOUR CONTAINING PRELIMINARY DATA FROM ALBUQUERQUE
      AND OTHER STATIONS.  A FINAL VERSION WITH ADDITIONAL DATA IS
      ISSUED ABOUT 10 MINUTES AFTER THE HOUR.

NMZ501-503-504-510>518-031500-
NORTHWEST PLATEAU/NORTHCENTRAL MOUNTAINS

CITY           SKY/WX    TMP DP  RH WIND       PRES   REMARKS
FARMINGTON     CLEAR     29  26  89 E6        29.89F WCI  23
LOS ALAMOS     MOCLDY    30  24  79 E5        29.91S WCI  25
SANTA FE       MOCLDY    31  26  82 S3        29.90F
TAOS           PTCLDY    25  16  68 SE5       29.90F WCI  19
ANGEL FIRE     FAIR      24  19  80 W21G31    29.84F WCI   9

$$
NMZ402-403-502-505>509-031500-
WESTCENTRAL MOUNTAINS/SOUTHWEST MOUNTAINS

CITY           SKY/WX    TMP DP  RH WIND       PRES   REMARKS
GALLUP         CLEAR     29  26  89 S5        29.91F WCI  24
GRANTS         MOCLDY    26  23  88 NW14      29.92F WCI  15
SILVER CITY    CLOUDY    39  37  93 NW7       29.95S WCI  34

$$
NMZ407-409-411-412-031500-
SOUTHERN DESERTS

CITY           SKY/WX    TMP DP  RH WIND       PRES   REMARKS
LORDSBURG      CLOUDY    41  39  93 W5        29.93R
DEMING         LGT RAIN  45  43  93 W7        29.93R
LAS CRUCES     LGT RAIN  47  46  95 W9        29.93R
HOLLOMAN AFB   LGT RAIN  50  50 100 CALM      29.88S FOG
ALAMOGORDO     LGT RAIN  50  48  93 SW5       29.90R
T OR C         RAIN      43  39  86 N5        29.90R

$$
NMZ519>523-031500-
CENTRAL VALLEYS/CENTRAL HIGHLANDS

CITY           SKY/WX    TMP DP  RH WIND       PRES   REMARKS
ALBUQUERQUE    CLOUDY    41  30  65 NW7       29.93S
DOUBLE EAGLE   MOCLDY    34  28  80 NE6       29.93F WCI  29
MORIARTY ARPT  PTSUNNY   35  26  71 W7        29.92F WCI  29
CLINES CORNERS MOCLDY    31  25  78 W20       29.86S WCI  19
BELEN          CLOUDY    39  34  83 CALM      29.91F
SOCORRO          N/A     42  34  72 NW7       29.92S

$$
NMZ524>526-539-540-031500-
SOUTHCENTRAL MOUNTAINS

CITY           SKY/WX    TMP DP  RH WIND       PRES   REMARKS
RUIDOSO        MOCLDY    41  36  81 CALM      29.93S

$$
NMZ527>531-031500-
NORTHEAST HIGHLANDS/NORTHEAST PLAINS

CITY           SKY/WX    TMP DP  RH WIND       PRES   REMARKS
LAS VEGAS      MOCLDY    35  16  45 W17G29    29.84R WCI  25
RATON          CLOUDY    35  18  49 W10       29.79S WCI  27
CLAYTON        MOCLDY    37  25  61 SW9       29.80R WCI  30

$$
NMZ532>537-031500-
EASTCENTRAL PLAINS

CITY           SKY/WX    TMP DP  RH WIND       PRES   REMARKS
TUCUMCARI      CLOUDY    42  33  70 W10       29.84S
CANNON AFB     CLOUDY    35  35  97 W8        29.89S WCI  29
CLOVIS AIRPORT CLOUDY    36  34  93 SW7       29.90R WCI  30

$$
NMZ028-029-538-031500-
SOUTHEAST PLAINS

CITY           SKY/WX    TMP DP  RH WIND       PRES   REMARKS
ROSWELL        FOG       37  36  96 N7        29.89F VSB 1/4 WCI  32
ARTESIA        CLOUDY    37  37 100 SE6       29.89F FOG     WCI  33
CARLSBAD       FOG       39  37  92 SE6       29.88S VSB 1/4 WCI  35
HOBBS          FOG       37  37 100 CALM      29.88F VSB 1/4


$$


USA.gov is the U.S. government's official web portal to all federal, state and local government web resources and services.